sat.trackr.live / text

‹ back to catalog

BALKAN-3

NORAD 69903 · 2026-156AL

PAYLOAD ACTIVE UNKNOWN

§ Identity

Operator
Country
BUL
Launch date
2026-07-07
Launch site
AFWTR
Launch vehicle
Mass (kg)
RCS (m²)

External: N2YO · Heavens-Above · Gunter

§ Orbital elements

Epoch: 2026-09-20T03:59:45.542112Z

Period
96.57 min
Inclination
97.7490°
Eccentricity
0.0001741
Mean motion
14.91187802 rev/d
Perigee alt
593.0 km
Apogee alt
595.4 km
Semi-major
6,972.4 km
B*
1.3162e-4
RAAN
162.3230°
Arg perigee
244.9214°
Mean anomaly
115.1824°
Rev number
1,115

§ Raw data

BALKAN-31 69903U 26156AL  26263.16649933  .00001252  00000+0  13162-3 0  99922 69903  97.7490 162.3230 0001741 244.9214 115.1824 14.91187802 11152

JSON: /api/v1/satellites/69903 · /tle

For live sub-satellite position, see the globe view (requires WebGL).

§ Visibility from observer

Set your observer location to see the next 7 days of passes ≥ 10°. The values pass through the URL so the page stays shareable.

No JS? Fill the form by hand. The geolocation button needs JavaScript.